This is the latest recevied weather packets stored in our database for station/object WD8INF-9. If no packets are shown the sender has not sent any weather packets the latest 10 day(s).
| Time | Temp. | Humidity | Pressure | Rain* | Wind** | Luminosity | Snow |
|---|---|---|---|---|---|---|---|
| 1778200949 | 12.78° C | - | 1012.5 hPa | 0 mm | - | - | - |
| 1778200649 | 12.78° C | - | 1012.2 hPa | 0 mm | - | - | - |
| 1778200352 | 13.33° C | - | 1012.2 hPa | 0 mm | - | - | - |
| 1778200045 | 13.33° C | - | 1011.8 hPa | 0 mm | - | - | - |
| 1778199745 | 13.89° C | - | 1012.3 hPa | 0 mm | - | - | - |
| 1778199445 | 13.89° C | - | 1011.9 hPa | 0 mm | - | - | - |
| 1778199144 | 13.89° C | - | 1012.2 hPa | 0 mm | - | - | - |
| 1778198844 | 14.44° C | - | 1012.1 hPa | 0 mm | - | - | - |
| 1778198544 | 14.44° C | - | 1012.1 hPa | 0 mm | - | - | - |
| 1778198244 | 14.44° C | - | 1012.1 hPa | 0 mm | - | - | - |
| 1778197944 | 14.44° C | - | 1012 hPa | 0 mm | - | - | - |
| 1778197643 | 14.44° C | - | 1011.9 hPa | 0 mm | - | - | - |
| 1778197343 | 15° C | - | 1012 hPa | 0 mm | - | - | - |
| 1778197043 | 15° C | - | 1012.2 hPa | 0 mm | - | - | - |
| 1778196742 | 15.56° C | - | 1012 hPa | 0 mm | - | - | - |
| 1778196442 | 15.56° C | - | 1012 hPa | 0 mm | - | - | - |
| 1778196141 | 16.11° C | - | 1011.9 hPa | 0 mm | - | - | - |
| 1778195840 | 16.11° C | - | 1012 hPa | 0 mm | - | - | - |
| 1778195540 | 15.56° C | - | 1011.5 hPa | 0 mm | - | - | - |
| 1778195240 | 15.56° C | - | 1011.9 hPa | 0 mm | - | - | - |
| 1778194939 | 16.11° C | - | 1011.6 hPa | 0 mm | - | - | - |
| 1778194639 | 16.11° C | - | 1012 hPa | 0 mm | - | - | - |
| 1778194338 | 16.67° C | - | 1011.7 hPa | 0 mm | - | - | - |
| 1778194038 | 18.89° C | - | 1011.6 hPa | 0 mm | - | - | - |
| 1778193737 | 18.89° C | - | 1011.7 hPa | 0 mm | - | - | - |
* Rain since midnight (hover to see other rain measurements)
** Current wind speed in m/s (hover to see current wind gust speed)